TimeCST,TemperatureF,Dew PointF,Humidity,Sea Level PressureIn,VisibilityMPH,Wind Direction,Wind SpeedMPH,Gust SpeedMPH,PrecipitationIn,Events,Conditions,WindDirDegrees,DateUTC
12:15 AM,28.4,15.8,59,30.23,10.0,SE,12.7,-,N/A,,Clear,140,2013-01-27 06:15:00
12:35 AM,28.4,15.8,59,30.23,10.0,SE,15.0,18.4,N/A,,Clear,140,2013-01-27 06:35:00
12:55 AM,28.4,15.8,59,30.22,10.0,SE,12.7,18.4,N/A,,Mostly Cloudy,140,2013-01-27 06:55:00
1:15 AM,28.4,15.8,59,30.22,10.0,SE,15.0,18.4,N/A,,Overcast,140,2013-01-27 07:15:00
1:35 AM,28.4,15.8,59,30.20,10.0,ESE,12.7,17.3,N/A,,Overcast,120,2013-01-27 07:35:00
1:55 AM,28.4,15.8,59,30.21,10.0,SE,12.7,-,N/A,,Overcast,140,2013-01-27 07:55:00
2:15 AM,28.4,15.8,59,30.20,10.0,SE,13.8,-,N/A,,Mostly Cloudy,130,2013-01-27 08:15:00
2:35 AM,28.4,15.8,59,30.19,10.0,SE,17.3,-,N/A,,Clear,140,2013-01-27 08:35:00
2:55 AM,28.4,15.8,59,30.18,10.0,SE,16.1,-,N/A,,Scattered Clouds,140,2013-01-27 08:55:00
3:15 AM,28.4,15.8,59,30.17,10.0,SE,15.0,-,N/A,,Scattered Clouds,130,2013-01-27 09:15:00
3:35 AM,28.4,15.8,59,30.16,10.0,SE,12.7,-,N/A,,Clear,140,2013-01-27 09:35:00
3:55 AM,28.4,15.8,59,30.16,10.0,SE,12.7,-,N/A,,Scattered Clouds,140,2013-01-27 09:55:00
4:15 AM,28.4,15.8,59,30.14,10.0,SE,15.0,-,N/A,,Mostly Cloudy,130,2013-01-27 10:15:00
4:35 AM,28.4,17.6,64,30.14,10.0,SE,12.7,-,N/A,,Overcast,140,2013-01-27 10:35:00
4:55 AM,28.4,17.6,64,30.14,10.0,SE,12.7,-,N/A,,Overcast,140,2013-01-27 10:55:00
5:15 AM,30.2,17.6,60,30.14,10.0,SE,15.0,-,N/A,,Overcast,140,2013-01-27 11:15:00
5:35 AM,30.2,17.6,60,30.14,10.0,SSE,11.5,17.3,N/A,,Overcast,150,2013-01-27 11:35:00
5:55 AM,28.4,19.4,69,30.14,10.0,SE,12.7,-,N/A,,Overcast,140,2013-01-27 11:55:00
6:15 AM,28.4,21.2,74,30.14,7.0,SSE,11.5,-,N/A,,Overcast,150,2013-01-27 12:15:00
6:35 AM,28.4,23.0,80,30.15,5.0,SE,10.4,-,0.01,,Overcast,140,2013-01-27 12:35:00
6:55 AM,28.4,24.8,86,30.15,4.0,SE,11.5,-,0.02,,Overcast,140,2013-01-27 12:55:00
7:15 AM,30.2,24.8,80,30.13,4.0,SE,12.7,-,0.02,,Overcast,130,2013-01-27 13:15:00
7:35 AM,30.2,24.8,80,30.12,7.0,SE,11.5,-,0.02,,Overcast,130,2013-01-27 13:35:00
7:55 AM,30.2,24.8,80,30.11,5.0,SE,13.8,-,0.03,,Overcast,140,2013-01-27 13:55:00
8:15 AM,30.2,26.6,86,30.09,5.0,SE,13.8,17.3,N/A,,Overcast,130,2013-01-27 14:15:00
8:35 AM,30.2,26.6,86,30.07,2.0,ESE,13.8,-,N/A,,Overcast,120,2013-01-27 14:35:00
8:55 AM,30.2,26.6,86,30.06,1.8,SE,11.5,18.4,0.01,,Overcast,130,2013-01-27 14:55:00
9:15 AM,30.2,26.6,86,30.05,3.0,SE,12.7,-,0.01,,Overcast,130,2013-01-27 15:15:00
9:35 AM,30.2,28.4,93,30.05,2.0,ESE,8.1,-,0.03,,Overcast,120,2013-01-27 15:35:00
9:55 AM,32.0,28.4,87,30.08,1.8,SSE,4.6,-,0.06,,Overcast,160,2013-01-27 15:55:00
10:15 AM,32.0,28.4,87,30.05,2.0,SE,10.4,-,0.02,,Overcast,130,2013-01-27 16:15:00
10:35 AM,32.0,28.4,87,30.05,1.8,SE,6.9,-,0.03,,Overcast,140,2013-01-27 16:35:00
10:55 AM,32.0,28.4,87,30.05,1.8,SE,5.8,-,0.04,,Overcast,130,2013-01-27 16:55:00
11:15 AM,32.0,28.4,87,30.02,1.8,SE,5.8,-,0.02,,Overcast,130,2013-01-27 17:15:00
11:35 AM,32.0,28.4,87,30.00,1.2,ESE,6.9,-,0.06,,Overcast,120,2013-01-27 17:35:00
11:55 AM,32.0,28.4,87,29.99,2.5,ESE,6.9,-,0.07,,Overcast,120,2013-01-27 17:55:00
12:15 PM,32.0,28.4,87,29.96,1.0,SE,8.1,-,0.03,,Overcast,130,2013-01-27 18:15:00
12:35 PM,32.0,28.4,87,29.95,2.0,SE,6.9,-,0.04,,Overcast,140,2013-01-27 18:35:00
12:55 PM,32.0,28.4,87,29.93,1.0,SE,5.8,-,0.05,,Overcast,140,2013-01-27 18:55:00
1:15 PM,32.0,28.4,87,29.93,1.0,SSE,5.8,-,N/A,,Overcast,150,2013-01-27 19:15:00
1:35 PM,32.0,28.4,87,29.91,2.0,SSE,6.9,-,0.02,,Overcast,150,2013-01-27 19:35:00
1:55 PM,32.0,28.4,87,29.90,2.5,SE,5.8,-,0.02,,Overcast,140,2013-01-27 19:55:00
2:15 PM,33.8,30.2,87,29.88,1.5,SE,6.9,-,N/A,,Overcast,140,2013-01-27 20:15:00
2:35 PM,33.8,30.2,87,29.88,1.0,SE,8.1,-,N/A,,Overcast,140,2013-01-27 20:35:00
2:55 PM,33.8,30.2,87,29.88,0.8,SE,6.9,-,N/A,,Overcast,140,2013-01-27 20:55:00
3:15 PM,33.8,30.2,87,29.87,0.8,SE,6.9,-,N/A,,Overcast,140,2013-01-27 21:15:00
3:35 PM,33.8,30.2,87,29.86,0.8,SE,9.2,-,N/A,,Overcast,140,2013-01-27 21:35:00
3:55 PM,33.8,30.2,87,29.86,0.5,SE,9.2,-,N/A,,Overcast,140,2013-01-27 21:55:00
4:15 PM,33.8,30.2,87,29.85,0.5,SE,11.5,-,N/A,Fog,Fog,140,2013-01-27 22:15:00
4:35 PM,35.6,32.0,87,29.84,0.5,SE,11.5,-,N/A,Fog,Fog,140,2013-01-27 22:35:00
4:55 PM,35.6,32.0,87,29.84,1.0,SE,11.5,-,N/A,,Overcast,140,2013-01-27 22:55:00
5:15 PM,35.6,33.8,93,29.83,1.0,SE,11.5,17.3,N/A,,Overcast,140,2013-01-27 23:15:00
5:35 PM,35.6,33.8,93,29.83,0.8,SE,11.5,-,N/A,,Overcast,140,2013-01-27 23:35:00
5:55 PM,37.4,33.8,87,29.82,0.8,SE,10.4,-,N/A,,Overcast,140,2013-01-27 23:55:00
6:15 PM,37.4,33.8,87,29.82,0.8,SE,10.4,-,N/A,,Overcast,140,2013-01-28 00:15:00
6:35 PM,37.4,35.6,93,29.82,0.8,SE,9.2,-,0.01,,Overcast,140,2013-01-28 00:35:00
6:55 PM,37.4,35.6,93,29.83,0.8,SSE,9.2,-,0.01,,Overcast,150,2013-01-28 00:55:00
7:15 PM,37.4,35.6,93,29.83,1.0,SSE,9.2,-,N/A,,Overcast,150,2013-01-28 01:15:00
7:35 PM,37.4,35.6,93,29.83,1.0,SSE,8.1,-,N/A,,Overcast,150,2013-01-28 01:35:00
7:55 PM,37.4,35.6,93,29.83,1.0,SE,8.1,-,N/A,,Overcast,140,2013-01-28 01:55:00
8:15 PM,37.4,35.6,93,29.82,1.2,SE,8.1,-,N/A,,Overcast,140,2013-01-28 02:15:00
8:35 PM,37.4,35.6,93,29.82,1.2,SE,9.2,-,N/A,,Overcast,140,2013-01-28 02:35:00
8:55 PM,37.4,35.6,93,29.81,1.2,SE,9.2,-,N/A,,Overcast,140,2013-01-28 02:55:00
9:15 PM,37.4,35.6,93,29.81,1.2,SSE,9.2,-,N/A,,Overcast,150,2013-01-28 03:15:00
9:35 PM,37.4,35.6,93,29.81,1.5,SSE,10.4,-,N/A,,Overcast,150,2013-01-28 03:35:00
9:55 PM,37.4,35.6,93,29.80,1.5,SE,9.2,-,N/A,,Overcast,140,2013-01-28 03:55:00
10:15 PM,39.2,35.6,87,29.80,2.0,SSE,9.2,-,N/A,,Overcast,150,2013-01-28 04:15:00
10:35 PM,39.2,35.6,87,29.79,2.0,SSE,6.9,-,N/A,,Overcast,160,2013-01-28 04:35:00
10:55 PM,39.2,37.4,93,29.79,2.0,SSE,8.1,-,N/A,,Overcast,160,2013-01-28 04:55:00
11:15 PM,39.2,37.4,93,29.79,3.0,SSE,10.4,-,N/A,,Overcast,160,2013-01-28 05:15:00
11:35 PM,41.0,37.4,87,29.79,3.0,South,8.1,-,N/A,,Overcast,170,2013-01-28 05:35:00
11:55 PM,42.8,39.2,87,29.79,4.0,South,6.9,-,N/A,,Overcast,170,2013-01-28 05:55:00